W4SNA-4 Weather Reports


Display with metric or nautical units.
time (UTC)temp
F
wind
direction
speed
MPH
gust
MPH
rain 1hr
in
rain 24hr
in
rain mn
in
humidity
%
barometer
mb
20260503000300 56 0 0.0 0.0 0.00 0.00 0.00 56 1007.5
20260502235655 57 0 0.0 0.0 0.00 0.00 0.00 55 1007.5
20260502235155 57 0 0.0 0.0 0.00 0.00 0.00 56 1007.1
20260502234655 57 0 0.0 0.0 0.00 0.00 0.00 55 1007.1
20260502234152 57 0 0.0 0.0 0.00 0.00 0.00 55 1007.1
20260502233656 57 0 0.0 0.0 0.00 0.00 0.00 54 1006.9
20260502232757 58 0 0.0 0.0 0.00 0.00 0.00 54 1006.9
20260502232300 58 0 0.0 0.0 0.00 0.00 0.00 53 1006.6
20260502231800 58 0 0.0 0.0 0.00 0.00 0.00 52 1006.6
20260502231604 58 0 0.0 0.0 0.00 0.00 0.00 51 1006.6
20260502231259 58 0 0.0 0.0 0.00 0.00 0.00 51 1006.6
20260502230758 58 0 0.0 0.0 0.00 0.00 0.00 50 1006.5
20260502230300 58 0 0.0 0.0 0.00 0.00 0.00 49 1006.5
20260502225759 58 0 0.0 0.0 0.00 0.00 0.00 51 1006.5
20260502225300 59 0 0.0 0.0 0.00 0.00 0.00 51 1006.4
20260502224758 59 0 0.0 0.0 0.00 0.00 0.00 53 1006.4
20260502224301 59 0 0.0 0.0 0.00 0.00 0.00 51 1006.4
20260502223800 59 0 0.0 0.0 0.00 0.00 0.00 51 1006.4
20260502223259 59 0 0.0 0.0 0.00 0.00 0.00 49 1006.4
20260502222758 59 0 0.0 0.0 0.00 0.00 0.00 50 1006.4
20260502222300 59 0 0.0 0.0 0.00 0.00 0.00 51 1006.2
20260502221801 59 0 0.0 0.0 0.00 0.00 0.00 51 1006.2
20260502221300 59 0 0.0 0.0 0.00 0.00 0.00 48 1006.2
20260502220758 59 0 0.0 0.0 0.00 0.00 0.00 51 1005.9
20260502220259 59 0 0.0 0.0 0.00 0.00 0.00 51 1005.9
20260502215759 59 0 0.0 0.0 0.00 0.00 0.00 50 1005.9
20260502215300 59 0 0.0 0.0 0.00 0.00 0.00 50 1005.9
20260502214757 59 0 0.0 0.0 0.00 0.00 0.00 50 1005.9
20260502213814 59 0 0.0 0.0 0.00 0.00 0.00 51 1005.9
20260502213315 59 0 0.0 0.0 0.00 0.00 0.00 50 1005.9
20260502212814 59 0 0.0 0.0 0.00 0.00 0.00 48 1005.9
20260502212314 59 0 0.0 0.0 0.00 0.00 0.00 48 1005.9
20260502211817 59 0 0.0 0.0 0.00 0.00 0.00 48 1005.9
20260502211323 59 0 0.0 0.0 0.00 0.00 0.00 48 1005.9
20260502210813 59 0 0.0 0.0 0.00 0.00 0.00 49 1005.9
20260502210315 59 0 0.0 0.0 0.00 0.00 0.00 48 1005.9
20260502205813 59 0 0.0 0.0 0.00 0.00 0.00 52 1005.9
20260502205314 59 0 0.0 0.0 0.00 0.00 0.00 50 1005.9
20260502204813 59 0 0.0 0.0 0.00 0.00 0.00 48 1005.9
20260502204322 59 0 0.0 0.0 0.00 0.00 0.00 49 1005.9
20260502203616 59 0 0.0 0.0 0.00 0.00 0.00 52 1006.0
20260502203117 59 0 0.0 0.0 0.00 0.00 0.00 52 1006.0
20260502202617 59 0 0.0 0.0 0.00 0.00 0.00 52 1006.0
20260502202116 59 0 0.0 0.0 0.00 0.00 0.00 53 1006.3
20260502201620 59 0 0.0 0.0 0.00 0.00 0.00 52 1006.3
20260502201117 59 0 0.0 0.0 0.00 0.00 0.00 49 1006.3
20260502200620 58 0 0.0 0.0 0.00 0.00 0.00 50 1006.4
20260502200009 58 0 0.0 0.0 0.00 0.00 0.00 54 1006.4
20260502195508 58 0 0.0 0.0 0.00 0.00 0.00 55 1006.4
20260502195008 58 0 0.0 0.0 0.00 0.00 0.00 52 1006.5
20260502194509 58 0 0.0 0.0 0.00 0.00 0.00 54 1006.5
20260502194008 57 0 0.0 0.0 0.00 0.00 0.00 54 1006.5
20260502193508 57 0 0.0 0.0 0.00 0.00 0.00 54 1006.9
20260502193009 57 0 0.0 0.0 0.00 0.00 0.00 52 1006.9
20260502192508 57 0 0.0 1.0 0.00 0.00 0.00 54 1006.9
20260502192008 57 0 0.0 1.0 0.00 0.00 0.00 53 1007.0
20260502191508 57 0 0.0 0.0 0.00 0.00 0.00 54 1007.0
20260502191012 57 0 0.0 0.0 0.00 0.00 0.00 51 1007.0
20260502190508 57 0 0.0 0.0 0.00 0.00 0.00 55 1007.1
20260502190008 56 0 0.0 0.0 0.00 0.00 0.00 54 1007.1
20260502185022 56 0 0.0 0.0 0.00 0.00 0.00 54 1007.3
20260502184521 56 0 0.0 0.0 0.00 0.00 0.00 52 1007.3
20260502184022 56 0 0.0 0.0 0.00 0.00 0.00 54 1007.3
20260502183522 56 0 0.0 0.0 0.00 0.00 0.00 55 1007.4
20260502183021 55 0 0.0 0.0 0.00 0.00 0.00 52 1007.4
20260502182522 55 0 0.0 0.0 0.00 0.00 0.00 53 1007.4
20260502182022 55 0 0.0 0.0 0.00 0.00 0.00 53 1007.5
20260502181107 54 0 0.0 2.0 0.00 0.00 0.00 52 1007.5
20260502180607 54 0 0.0 2.0 0.00 0.00 0.00 53 1007.5
20260502180109 54 0 0.0 0.0 0.00 0.00 0.00 53 1007.5
20260502170508 54 0 0.0 0.0 0.00 0.00 0.00 56 1008.0
20260502164009 54 0 0.0 1.0 0.00 0.00 0.00 66 1008.2
20260502163517 54 0 0.0 1.0 0.00 0.00 0.00 63 1008.4
20260502163009 54 0 0.0 0.0 0.00 0.00 0.00 66 1008.4
20260502162509 55 0 0.0 0.0 0.00 0.00 0.00 65 1008.4
20260502162008 55 0 0.0 0.0 0.00 0.00 0.00 65 1008.5
20260502161509 54 0 0.0 0.0 0.00 0.00 0.00 68 1008.5
20260502161009 54 0 0.0 0.0 0.00 0.00 0.00 67 1008.5
20260502160508 54 0 0.0 0.0 0.00 0.00 0.00 65 1008.4
20260502151928 52 0 0.0 0.0 0.00 0.00 0.00 66 1008.9
20260502151429 52 0 0.0 0.0 0.00 0.00 0.00 65 1008.9
20260502150929 52 0 0.0 0.0 0.00 0.00 0.00 65 1008.7
20260502150428 52 0 0.0 0.0 0.00 0.00 0.00 62 1008.7
20260502130310 52 0 0.0 0.0 0.00 0.00 0.00 75 1007.8
20260502123810 52 0 0.0 0.0 0.00 0.00 0.00 74 1007.5
20260502123310 52 0 0.0 0.0 0.00 0.00 0.00 74 1007.5
20260502122809 52 0 0.0 0.0 0.00 0.00 0.00 74 1007.5
20260502122310 52 0 0.0 0.0 0.00 0.00 0.00 73 1006.9
20260502121810 52 0 0.0 0.0 0.00 0.00 0.00 74 1006.9
20260502121309 53 0 0.0 0.0 0.00 0.00 0.00 73 1006.9
20260502120810 53 0 0.0 0.0 0.00 0.00 0.00 72 1007.7
20260502120309 53 0 0.0 0.0 0.00 0.00 0.00 72 1007.7
20260502115809 53 0 0.0 0.0 0.00 0.00 0.00 72 1007.7
20260502115310 53 0 0.0 0.0 0.00 0.00 0.00 72 1007.4
20260502114809 53 0 0.0 1.0 0.00 0.00 0.00 72 1007.4
20260502114309 53 0 0.0 1.0 0.00 0.00 0.00 71 1007.4
20260502113810 53 0 0.0 1.0 0.00 0.00 0.00 71 1007.3
20260502113309 53 0 0.0 0.0 0.00 0.00 0.00 72 1007.3
20260502112809 53 0 0.0 0.0 0.00 0.00 0.00 71 1007.3
20260502112310 53 0 0.0 0.0 0.00 0.00 0.00 71 1007.0
20260502111809 53 0 0.0 0.0 0.00 0.00 0.00 72 1007.0
20260502111309 53 0 0.0 0.0 0.00 0.00 0.00 72 1007.0
20260502110810 53 0 0.0 0.0 0.00 0.00 0.00 72 1006.9
20260502110320 53 0 0.0 0.0 0.00 0.00 0.00 72 1006.9
20260502105507 53 0 0.0 0.0 0.00 0.00 0.00 72 1006.9
20260502105007 53 0 0.0 0.0 0.00 0.00 0.00 72 1006.9
20260502104507 53 0 0.0 0.0 0.00 0.00 0.00 72 1006.9
20260502104006 53 0 0.0 0.0 0.00 0.00 0.00 72 1006.9
20260502103507 53 0 0.0 1.0 0.00 0.00 0.00 73 1006.8
20260502103007 53 0 0.0 2.0 0.00 0.00 0.00 74 1006.8
20260502102506 53 0 0.0 2.0 0.00 0.00 0.00 75 1006.8
20260502102007 53 0 0.0 2.0 0.00 0.00 0.00 75 1007.0
20260502101507 53 0 0.0 0.0 0.00 0.00 0.00 77 1007.0
20260502100606 53 0 0.0 0.0 0.00 0.00 0.00 77 1007.2
20260502100106 53 0 0.0 0.0 0.00 0.00 0.00 78 1007.2
20260502090806 54 0 0.0 0.0 0.00 0.00 0.00 80 1007.8
20260502090309 54 0 0.0 0.0 0.00 0.00 0.00 80 1007.8
20260502071109 54 0 0.0 0.0 0.00 0.00 0.00 86 1006.5
20260502070611 54 0 0.0 0.0 0.00 0.00 0.00 87 1006.6
20260502070115 53 0 0.0 0.0 0.00 0.00 0.00 88 1006.6
20260502065610 53 0 0.0 0.0 0.00 0.00 0.00 89 1006.6
20260502065109 53 0 0.0 0.0 0.00 0.00 0.00 89 1006.8
20260502064609 53 0 0.0 1.0 0.00 0.00 0.00 88 1006.8
20260502064109 53 0 0.0 1.0 0.00 0.00 0.00 88 1006.8
20260502063610 53 0 0.0 1.0 0.00 0.00 0.00 87 1006.7
20260502063109 53 0 0.0 1.0 0.00 0.00 0.00 87 1006.7
20260502062609 54 0 0.0 1.0 0.00 0.00 0.00 86 1006.7
20260502062110 54 0 0.0 0.0 0.00 0.00 0.00 86 1006.6
20260502061609 54 0 0.0 0.0 0.00 0.00 0.00 85 1006.6
20260502061109 54 0 0.0 0.0 0.00 0.00 0.00 85 1006.6
20260502060610 54 0 0.0 0.0 0.00 0.00 0.00 85 1006.7
20260502060112 54 0 0.0 0.0 0.00 0.00 0.00 85 1006.7
20260502055613 54 0 0.0 0.0 0.00 0.00 0.00 85 1006.7
20260502055110 54 0 0.0 0.0 0.00 0.00 0.00 86 1006.7
20260502054614 54 0 0.0 0.0 0.00 0.00 0.00 86 1006.7
20260502054109 54 0 0.0 0.0 0.00 0.00 0.00 86 1006.7
20260502053610 54 0 0.0 0.0 0.00 0.00 0.00 86 1006.8
20260502053109 54 0 0.0 0.0 0.00 0.00 0.00 86 1006.8
20260502052609 54 0 0.0 0.0 0.00 0.00 0.00 85 1006.8
20260502052109 54 0 0.0 1.0 0.00 0.00 0.00 85 1006.8
20260502051609 54 0 0.0 1.0 0.00 0.00 0.00 85 1006.8
20260502050809 54 0 0.0 0.0 0.00 0.00 0.00 85 1006.8
20260502050310 54 0 0.0 0.0 0.00 0.00 0.00 85 1006.8
20260502045810 54 0 0.0 0.0 0.00 0.00 0.00 85 1006.8
20260502045308 54 0 0.0 0.0 0.00 0.00 0.00 85 1007.1
20260502044809 54 0 0.0 0.0 0.00 0.00 0.00 84 1007.1
20260502044308 54 0 0.0 0.0 0.00 0.00 0.00 84 1007.1
20260502043809 54 0 0.0 0.0 0.00 0.00 0.00 84 1007.0
20260502043310 54 0 0.0 0.0 0.00 0.00 0.00 84 1007.0
20260502042808 54 0 0.0 0.0 0.00 0.00 0.00 84 1007.0
20260502042309 54 0 0.0 0.0 0.00 0.00 0.00 84 1007.0
20260502041809 54 0 0.0 0.0 0.00 0.00 0.00 84 1007.0
20260502041308 54 0 0.0 0.0 0.00 0.00 0.00 84 1007.0
20260502040809 54 0 0.0 1.0 0.00 0.00 0.00 84 1007.1
20260502040310 54 0 0.0 1.0 0.00 0.00 0.00 84 1007.1
20260502035808 54 0 0.0 0.0 0.00 0.00 0.00 84 1007.1
20260502035309 54 0 0.0 0.0 0.00 0.00 0.00 84 1007.2
20260502034808 54 0 0.0 0.0 0.00 0.00 0.00 84 1007.2
20260502034308 54 0 0.0 0.0 0.00 0.00 0.00 84 1007.2
20260502033809 54 0 0.0 0.0 0.00 0.00 0.00 83 1007.3
20260502033309 54 0 0.0 0.0 0.00 0.00 0.00 83 1007.3
20260502032811 54 0 0.0 0.0 0.00 0.00 0.00 83 1007.3
20260502032309 54 0 0.0 0.0 0.00 0.00 0.00 83 1007.5
20260502031808 54 0 0.0 0.0 0.00 0.00 0.00 82 1007.5
20260502031309 54 0 0.0 0.0 0.00 0.00 0.00 82 1007.5
20260502030809 54 0 0.0 0.0 0.00 0.00 0.00 82 1007.6
20260502030309 54 0 0.0 0.0 0.00 0.00 0.00 82 1007.6
20260502025809 54 0 0.0 0.0 0.00 0.00 0.00 82 1007.6
20260502025308 54 0 0.0 1.0 0.00 0.00 0.00 81 1007.3
20260502024808 54 0 0.0 1.0 0.00 0.00 0.00 81 1007.3
20260502024309 55 0 0.0 0.0 0.00 0.00 0.00 81 1007.3
20260502023808 55 0 0.0 0.0 0.00 0.00 0.00 81 1007.4
20260502023208 55 0 0.0 0.0 0.00 0.00 0.00 80 1007.4
20260502022708 55 0 0.0 0.0 0.00 0.00 0.00 80 1007.4
20260502022208 55 0 0.0 0.0 0.00 0.00 0.00 80 1007.4
20260502021653 55 0 0.0 0.0 0.00 0.00 0.00 80 1007.4
20260502021155 55 0 0.0 0.0 0.00 0.00 0.00 79 1007.4
20260502020654 55 0 0.0 0.0 0.00 0.00 0.00 79 1007.3
20260502020154 55 0 0.0 0.0 0.00 0.00 0.00 79 1007.3
20260502015657 55 0 0.0 0.0 0.00 0.00 0.00 79 1007.3
20260502015154 55 0 0.0 0.0 0.00 0.00 0.00 78 1007.4
20260502014654 56 0 0.0 0.0 0.00 0.00 0.00 78 1007.4
20260502014154 56 0 0.0 0.0 0.00 0.00 0.00 78 1007.4
20260502013653 56 0 0.0 0.0 0.00 0.00 0.00 78 1007.5
20260502013154 56 0 0.0 0.0 0.00 0.00 0.00 77 1007.5
20260502012654 56 0 0.0 0.0 0.00 0.00 0.00 77 1007.5
20260502012154 56 0 0.0 0.0 0.00 0.00 0.00 76 1007.3
20260502011654 56 0 0.0 0.0 0.00 0.00 0.00 76 1007.3
20260502011153 57 0 0.0 0.0 0.00 0.00 0.00 76 1007.3
20260502010653 57 0 0.0 0.0 0.00 0.00 0.00 75 1007.2
20260502010154 57 0 0.0 0.0 0.00 0.00 0.00 75 1007.2
20260502005653 57 0 0.0 0.0 0.00 0.00 0.00 75 1007.2
20260502005156 57 0 0.0 0.0 0.00 0.00 0.00 75 1006.8
20260502004655 58 0 0.0 0.0 0.00 0.00 0.00 74 1006.8
20260502004153 58 0 0.0 0.0 0.00 0.00 0.00 74 1006.8
20260502003654 58 0 0.0 0.0 0.00 0.00 0.00 74 1006.6
20260502003153 58 0 0.0 0.0 0.00 0.00 0.00 73 1006.6
20260502002654 59 0 0.0 0.0 0.00 0.00 0.00 73 1006.6
20260502002154 59 0 0.0 0.0 0.00 0.00 0.00 73 1006.2
20260502001423 59 0 0.0 0.0 0.00 0.00 0.00 72 1006.2
20260502000923 59 0 0.0 0.0 0.00 0.00 0.00 71 1006.2